| time (UTC) | temp C | wind direction | speed KPH | gust KPH | rain 1hr cm | rain 24hr cm | rain mn cm | humidity % | barometer mb |
| 20260503200105 | 16 | 234 | 19.3 | 30.6 | 0.00 | 0.00 | 0.00 | 40 | 1017.1 |
| 20260503194557 | 16 | 227 | 11.3 | 24.1 | 0.00 | 0.00 | 0.00 | 45 | 1017.5 |
| 20260503193056 | 15 | 177 | 8.0 | 29.0 | 0.00 | 0.00 | 0.00 | 42 | 1017.8 |
| 20260503191558 | 15 | 189 | 19.3 | 32.2 | 0.00 | 0.00 | 0.00 | 39 | 1017.9 |
| 20260503190108 | 15 | 201 | 11.3 | 24.1 | 0.00 | 0.00 | 0.00 | 42 | 1018.3 |
| 20260503184602 | 15 | 180 | 6.4 | 25.7 | 0.00 | 0.00 | 0.00 | 37 | 1018.3 |
| 20260503183101 | 15 | 180 | 19.3 | 37.0 | 0.00 | 0.00 | 0.00 | 39 | 1018.8 |
| 20260503181601 | 15 | 187 | 17.7 | 29.0 | 0.00 | 0.00 | 0.00 | 39 | 1018.9 |
| 20260503180059 | 15 | 217 | 12.9 | 27.4 | 0.00 | 0.00 | 0.00 | 43 | 1019.1 |
| 20260503174555 | 15 | 202 | 19.3 | 30.6 | 0.00 | 0.00 | 0.00 | 43 | 1019.2 |
| 20260503173100 | 15 | 204 | 12.9 | 27.4 | 0.00 | 0.00 | 0.00 | 44 | 1019.5 |
| 20260503171603 | 15 | 203 | 12.9 | 25.7 | 0.00 | 0.00 | 0.00 | 43 | 1019.8 |
| 20260503100110 | 0 | 0 | 0.0 | 0.0 | 0.00 | 0.00 | 0.00 | 92 | 1019.9 |
| 20260503081559 | 0 | 0 | 0.0 | 0.0 | 0.00 | 0.00 | 0.00 | 91 | 1019.8 |
| 20260503071601 | 1 | 0 | 0.0 | 0.0 | 0.00 | 0.00 | 0.00 | 90 | 1019.7 |
| 20260503060119 | 1 | 0 | 0.0 | 0.0 | 0.00 | 0.00 | 0.00 | 88 | 1020.2 |
| 20260503054622 | 1 | 0 | 0.0 | 0.0 | 0.00 | 0.00 | 0.00 | 88 | 1020.2 |
| 20260503053058 | 1 | 0 | 0.0 | 0.0 | 0.00 | 0.00 | 0.00 | 87 | 1020.2 |
| 20260503051557 | 2 | 0 | 0.0 | 0.0 | 0.00 | 0.00 | 0.00 | 87 | 1020.2 |
| 20260503050101 | 2 | 0 | 0.0 | 0.0 | 0.00 | 0.00 | 0.00 | 86 | 1020.2 |
| 20260503044557 | 2 | 0 | 0.0 | 0.0 | 0.00 | 0.00 | 0.00 | 85 | 1020.1 |
| 20260503043058 | 2 | 0 | 0.0 | 0.0 | 0.00 | 0.00 | 0.00 | 84 | 1020.1 |
| 20260503041559 | 2 | 0 | 0.0 | 1.6 | 0.00 | 0.00 | 0.00 | 83 | 1020.1 |
| 20260503040105 | 3 | 0 | 0.0 | 0.0 | 0.00 | 0.00 | 0.00 | 82 | 1020.3 |
| 20260503034615 | 3 | 0 | 0.0 | 0.0 | 0.00 | 0.00 | 0.00 | 80 | 1020.4 |
| 20260503033106 | 3 | 0 | 0.0 | 0.0 | 0.00 | 0.00 | 0.00 | 78 | 1020.3 |
| 20260503031558 | 4 | 0 | 0.0 | 0.0 | 0.00 | 0.00 | 0.00 | 75 | 1020.2 |
| 20260503030056 | 5 | 0 | 0.0 | 0.0 | 0.00 | 0.00 | 0.00 | 69 | 1020.3 |
| 20260503024556 | 5 | 0 | 0.0 | 1.6 | 0.00 | 0.00 | 0.00 | 66 | 1020.3 |
| 20260503023107 | 5 | 7 | 0.0 | 4.8 | 0.00 | 0.00 | 0.00 | 65 | 1020.2 |
| 20260503021556 | 6 | 0 | 0.0 | 0.0 | 0.00 | 0.00 | 0.00 | 62 | 1020.1 |
| 20260503020056 | 6 | 0 | 0.0 | 4.8 | 0.00 | 0.00 | 0.00 | 58 | 1019.9 |
| 20260503014600 | 7 | 0 | 0.0 | 6.4 | 0.00 | 0.00 | 0.00 | 56 | 1019.8 |
| 20260503013058 | 7 | 2 | 3.2 | 9.7 | 0.00 | 0.00 | 0.00 | 54 | 1019.6 |
| 20260503011604 | 8 | 0 | 0.0 | 9.7 | 0.00 | 0.00 | 0.00 | 52 | 1019.4 |
| 20260503010056 | 8 | 7 | 1.6 | 11.3 | 0.00 | 0.00 | 0.00 | 50 | 1019.3 |
| 20260503004558 | 8 | 349 | 4.8 | 14.5 | 0.00 | 0.00 | 0.00 | 48 | 1019.1 |
| 20260503003056 | 9 | 341 | 4.8 | 17.7 | 0.00 | 0.00 | 0.00 | 47 | 1018.9 |
| 20260503001618 | 9 | 342 | 4.8 | 14.5 | 0.00 | 0.00 | 0.00 | 46 | 1018.8 |
| 20260503000121 | 10 | 325 | 4.8 | 19.3 | 0.00 | 0.00 | 0.00 | 45 | 1018.7 |
| 20260502234606 | 10 | 356 | 8.0 | 17.7 | 0.00 | 0.00 | 0.00 | 43 | 1018.4 |
| 20260502233056 | 10 | 360 | 8.0 | 22.5 | 0.00 | 0.00 | 0.00 | 45 | 1018.4 |
| 20260502231610 | 10 | 325 | 6.4 | 19.3 | 0.00 | 0.00 | 0.00 | 44 | 1018.4 |
| 20260502230057 | 11 | 340 | 8.0 | 19.3 | 0.00 | 0.00 | 0.00 | 43 | 1018.4 |
| 20260502224600 | 11 | 3 | 11.3 | 19.3 | 0.00 | 0.00 | 0.00 | 38 | 1018.4 |
| 20260502223101 | 11 | 336 | 9.7 | 24.1 | 0.00 | 0.00 | 0.00 | 39 | 1018.4 |
| 20260502221556 | 12 | 357 | 9.7 | 24.1 | 0.00 | 0.00 | 0.00 | 39 | 1018.3 |
| 20260502220057 | 12 | 315 | 8.0 | 30.6 | 0.00 | 0.00 | 0.00 | 41 | 1018.1 |
| 20260502214556 | 12 | 266 | 6.4 | 22.5 | 0.00 | 0.00 | 0.00 | 46 | 1018.1 |
| 20260502213106 | 12 | 354 | 8.0 | 22.5 | 0.00 | 0.00 | 0.00 | 40 | 1018.1 |
| 20260502211555 | 12 | 302 | 9.7 | 25.7 | 0.00 | 0.00 | 0.00 | 39 | 1018.0 |
| 20260502210056 | 12 | 326 | 6.4 | 20.9 | 0.00 | 0.00 | 0.00 | 39 | 1018.0 |
| 20260502204616 | 12 | 332 | 14.5 | 27.4 | 0.00 | 0.00 | 0.00 | 38 | 1018.0 |
| 20260502203105 | 12 | 348 | 11.3 | 29.0 | 0.00 | 0.00 | 0.00 | 38 | 1018.0 |
| 20260502201611 | 11 | 307 | 8.0 | 27.4 | 0.00 | 0.00 | 0.00 | 44 | 1018.2 |